GW4572 Weather Reports


Display with metric or nautical units.
time (UTC)temp
F
wind
direction
speed
MPH
gust
MPH
rain 1hr
in
rain 24hr
in
rain mn
in
humidity
%
barometer
mb
20260510194301 62 272 2.0 3.0 0.00 0.07 0.07 78 1019.1
20260510193757 62 267 0.0 3.0 0.00 0.07 0.07 79 1019.3
20260510193251 63 302 5.0 6.0 0.00 0.07 0.07 78 1019.0
20260510192747 63 327 1.0 2.0 0.00 0.07 0.07 77 1019.0
20260510192243 62 278 3.0 6.0 0.00 0.07 0.07 78 1018.9
20260510191740 62 293 4.0 4.0 0.00 0.07 0.07 79 1019.0
20260510191235 62 301 0.0 3.0 0.00 0.07 0.07 78 1019.0
20260510190733 64 242 1.0 2.0 0.00 0.07 0.07 75 1019.0
20260510190230 63 273 4.0 6.0 0.00 0.07 0.07 77 1019.0
20260510185727 64 259 3.0 6.0 0.00 0.07 0.07 75 1018.9
20260510185225 64 275 2.0 3.0 0.00 0.07 0.07 73 1018.9
20260510184721 64 266 4.0 4.0 0.00 0.07 0.07 75 1018.7
20260510184218 64 259 2.0 2.0 0.00 0.07 0.07 73 1018.5
20260510183714 63 268 2.0 7.0 0.00 0.07 0.07 75 1018.7
20260510183208 65 287 4.0 4.0 0.00 0.07 0.07 72 1018.7
20260510182705 64 282 3.0 8.0 0.00 0.07 0.07 74 1018.5
20260510182200 64 266 2.0 4.0 0.00 0.07 0.07 82 1018.9
20260510181658 63 293 3.0 3.0 0.00 0.07 0.07 81 1018.7
20260510181154 61 277 3.0 6.0 0.00 0.07 0.07 84 1018.6
20260510180650 60 241 3.0 4.0 0.00 0.07 0.07 84 1019.0
20260510180148 58 255 2.0 3.0 0.00 0.07 0.07 86 1019.0
20260510175644 58 253 2.0 3.0 0.00 0.07 0.07 89 1019.1
20260510175140 56 249 0.0 0.0 0.00 0.07 0.07 91 1019.1
20260510174637 56 249 0.0 0.0 0.00 0.07 0.07 91 1019.2
20260510174135 56 250 2.0 3.0 0.00 0.07 0.07 91 1019.1
20260510173630 56 255 2.0 3.0 0.07 0.07 0.07 91 1019.4
20260510173127 55 260 4.0 4.0 0.12 0.07 0.07 90 1019.2
20260510172622 55 259 1.0 2.0 0.17 0.06 0.06 89 1019.6
20260510172119 56 287 1.0 3.0 0.24 0.05 0.05 88 1019.5
20260510171616 58 334 0.0 4.0 0.19 0.03 0.03 86 1019.6
20260510171114 60 259 3.0 4.0 0.07 0.01 0.01 78 1019.4
20260510170610 62 267 1.0 3.0 0.00 0.00 0.00 71 1018.9
20260510170106 64 297 5.0 6.0 0.00 0.00 0.00 60 1018.9
20260510165602 65 294 1.0 2.0 0.00 0.00 0.00 62 1018.7
20260510165058 66 276 4.0 8.0 0.00 0.00 0.00 59 1018.6
20260510164555 67 240 5.0 7.0 0.00 0.00 0.00 60 1018.7
20260510164052 65 355 1.0 4.0 0.00 0.00 0.00 65 1018.7
20260510163547 64 264 3.0 4.0 0.00 0.00 0.00 65 1018.9
20260510163044 64 257 1.0 4.0 0.00 0.00 0.00 66 1018.9
20260510162539 63 288 3.0 4.0 0.00 0.00 0.00 64 1018.7
20260510162036 63 254 2.0 4.0 0.00 0.00 0.00 64 1018.7
20260510161531 64 268 2.0 3.0 0.00 0.00 0.00 64 1018.5
20260510161028 64 245 3.0 7.0 0.00 0.00 0.00 64 1018.9
20260510160521 63 289 4.0 4.0 0.00 0.00 0.00 65 1018.9
20260510160020 63 280 4.0 4.0 0.00 0.00 0.00 65 1019.0
20260510155517 63 272 5.0 6.0 0.00 0.00 0.00 64 1019.1
20260510155013 63 264 1.0 3.0 0.00 0.00 0.00 63 1018.9
20260510154508 64 265 3.0 8.0 0.00 0.00 0.00 62 1018.7
20260510154003 64 304 3.0 6.0 0.00 0.00 0.00 63 1019.2
20260510153458 64 296 4.0 6.0 0.00 0.00 0.00 64 1018.9
20260510152955 63 288 0.0 8.0 0.00 0.00 0.00 65 1018.7
20260510152453 64 260 5.0 7.0 0.00 0.00 0.00 62 1018.7
20260510151948 64 225 6.0 9.0 0.00 0.00 0.00 62 1018.4
20260510151445 65 276 6.0 8.0 0.00 0.00 0.00 59 1018.6
20260510150942 64 263 4.0 6.0 0.00 0.00 0.00 65 1018.7
20260510150432 65 235 4.0 9.0 0.00 0.00 0.00 63 1018.6
20260510145928 63 220 4.0 6.0 0.00 0.00 0.00 64 1018.5
20260510145425 63 254 3.0 4.0 0.00 0.00 0.00 65 1018.3
20260510144921 63 250 8.0 9.0 0.00 0.00 0.00 64 1018.2
20260510144418 63 270 4.0 6.0 0.00 0.00 0.00 65 1018.2
20260510143913 64 257 6.0 8.0 0.00 0.00 0.00 64 1018.2
20260510143410 64 264 7.0 14.0 0.00 0.00 0.00 65 1018.3
20260510142907 63 272 10.0 11.0 0.00 0.00 0.00 65 1018.4
20260510142403 62 283 6.0 7.0 0.00 0.00 0.00 68 1018.4
20260510141900 63 255 4.0 6.0 0.00 0.00 0.00 66 1018.1
20260510141357 62 243 5.0 7.0 0.00 0.00 0.00 67 1018.1
20260510140854 61 275 6.0 7.0 0.00 0.00 0.00 70 1018.1
20260510140349 61 246 4.0 8.0 0.00 0.00 0.00 71 1018.3
20260510135843 61 246 4.0 10.0 0.00 0.00 0.00 70 1018.4
20260510135339 60 247 6.0 7.0 0.00 0.00 0.00 71 1018.3
20260510134837 60 241 4.0 6.0 0.00 0.00 0.00 71 1018.1
20260510134334 61 227 5.0 8.0 0.00 0.00 0.00 70 1018.4
20260510133830 60 291 4.0 8.0 0.00 0.00 0.00 72 1018.2
20260510133326 60 251 8.0 9.0 0.00 0.00 0.00 71 1018.4
20260510132822 58 274 3.0 4.0 0.00 0.00 0.00 75 1018.3
20260510132320 58 267 2.0 3.0 0.00 0.00 0.00 75 1018.3
20260510131817 57 259 0.0 0.0 0.00 0.00 0.00 76 1018.2
20260510131315 56 260 3.0 4.0 0.00 0.00 0.00 79 1018.2
20260510130811 56 253 4.0 6.0 0.00 0.00 0.00 78 1017.9
20260510130308 55 246 4.0 6.0 0.00 0.00 0.00 80 1018.1
20260510125804 56 241 0.0 0.0 0.00 0.00 0.00 82 1017.9
20260510125300 55 241 0.0 0.0 0.00 0.00 0.00 81 1017.9
20260510124757 55 241 0.0 0.0 0.00 0.00 0.00 81 1018.1
20260510124254 55 241 0.0 0.0 0.00 0.00 0.00 80 1018.0
20260510123750 55 242 0.0 0.0 0.00 0.00 0.00 81 1018.1
20260510123246 55 242 0.0 1.0 0.00 0.00 0.00 82 1017.9
20260510122742 55 242 1.0 2.0 0.00 0.00 0.00 81 1018.1
20260510122238 55 237 1.0 2.0 0.00 0.00 0.00 81 1017.9
20260510121734 55 241 0.0 0.0 0.00 0.00 0.00 82 1017.7
20260510121232 54 240 0.0 3.0 0.00 0.00 0.00 82 1017.8
20260510120730 55 242 2.0 3.0 0.00 0.00 0.00 81 1017.5
20260510120226 55 253 2.0 3.0 0.00 0.00 0.00 82 1017.8
20260510115722 55 258 2.0 3.0 0.00 0.00 0.00 81 1017.5
20260510115220 54 257 2.0 2.0 0.00 0.00 0.00 82 1017.4
20260510114715 55 264 2.0 3.0 0.00 0.00 0.00 81 1017.2
20260510114212 55 242 2.0 3.0 0.00 0.00 0.00 81 1017.2
20260510113707 55 262 2.0 2.0 0.00 0.00 0.00 81 1017.2
20260510113204 55 230 2.0 3.0 0.00 0.00 0.00 80 1017.3
20260510112700 55 246 3.0 3.0 0.00 0.00 0.00 80 1016.9
20260510112158 55 252 2.0 3.0 0.00 0.00 0.00 81 1017.2
20260510111654 55 245 2.0 3.0 0.00 0.00 0.00 81 1016.9
20260510111151 54 275 3.0 3.0 0.00 0.00 0.00 81 1016.8
20260510110645 54 252 3.0 3.0 0.00 0.00 0.00 81 1016.9
20260510110143 54 236 1.0 2.0 0.00 0.00 0.00 82 1017.0
20260510105638 53 278 3.0 4.0 0.00 0.00 0.00 83 1016.8
20260510105138 53 254 1.0 2.0 0.00 0.00 0.00 83 1017.0
20260510104635 53 237 0.0 0.0 0.00 0.00 0.00 83 1016.8
20260510104132 53 248 1.0 2.0 0.00 0.00 0.00 83 1016.7
20260510103629 53 242 1.0 2.0 0.00 0.00 0.00 83 1016.6
20260510103125 53 268 1.0 4.0 0.00 0.00 0.00 83 1016.5
20260510102620 53 285 2.0 4.0 0.00 0.00 0.00 83 1016.4
20260510102116 53 287 2.0 3.0 0.00 0.00 0.00 83 1016.5
20260510101614 52 263 1.0 2.0 0.00 0.00 0.00 83 1016.1
20260510101112 53 246 0.0 2.0 0.00 0.00 0.00 83 1016.0
20260510100609 53 246 1.0 3.0 0.00 0.00 0.00 83 1015.9
20260510100106 53 262 2.0 4.0 0.00 0.00 0.00 83 1015.7
20260510095602 53 272 2.0 6.0 0.00 0.00 0.00 82 1015.8
20260510095101 53 249 2.0 7.0 0.00 0.00 0.00 82 1015.7
20260510094601 53 277 2.0 3.0 0.00 0.00 0.00 82 1015.8
20260510094056 53 285 3.0 4.0 0.00 0.00 0.00 82 1015.7
20260510093553 53 270 3.0 4.0 0.00 0.00 0.00 82 1015.4
20260510093050 53 292 2.0 3.0 0.00 0.00 0.00 82 1015.4
20260510092547 53 259 1.0 3.0 0.00 0.00 0.00 81 1015.7
20260510092046 53 249 5.0 6.0 0.00 0.00 0.00 81 1015.6
20260510091543 53 259 2.0 6.0 0.00 0.00 0.00 81 1015.4
20260510091039 53 270 2.0 3.0 0.00 0.00 0.00 81 1015.4
20260510090536 53 269 4.0 4.0 0.00 0.00 0.00 82 1015.4
20260510090032 53 276 4.0 4.0 0.00 0.00 0.00 82 1015.3
20260510085527 53 274 1.0 3.0 0.00 0.00 0.00 82 1015.2
20260510085023 53 264 4.0 4.0 0.00 0.00 0.00 82 1015.5
20260510084520 53 259 1.0 3.0 0.00 0.00 0.00 82 1015.3
20260510084017 53 269 2.0 3.0 0.00 0.00 0.00 82 1015.4
20260510083513 53 254 2.0 4.0 0.00 0.00 0.00 82 1015.4
20260510083010 53 276 4.0 7.0 0.00 0.00 0.00 82 1015.3
20260510082507 53 264 4.0 6.0 0.00 0.00 0.00 81 1015.3
20260510082006 53 288 3.0 8.0 0.00 0.00 0.00 81 1015.4
20260510081502 53 272 4.0 7.0 0.00 0.00 0.00 82 1015.3
20260510080958 53 250 2.0 6.0 0.00 0.00 0.00 83 1015.4
20260510080456 53 241 3.0 3.0 0.00 0.00 0.00 83 1015.4
20260510075954 53 282 3.0 4.0 0.00 0.00 0.00 83 1015.3
20260510075451 53 256 4.0 4.0 0.00 0.00 0.00 83 1015.1
20260510074948 53 258 5.0 6.0 0.00 0.00 0.00 83 1015.3
20260510074445 53 273 4.0 4.0 0.00 0.00 0.00 82 1015.3
20260510073941 53 258 4.0 7.0 0.00 0.00 0.00 82 1015.4
20260510073437 53 261 5.0 8.0 0.00 0.00 0.00 82 1015.3
20260510072934 53 276 6.0 7.0 0.00 0.00 0.00 82 1015.3
20260510072431 53 260 4.0 4.0 0.00 0.00 0.00 83 1015.1
20260510071932 53 278 6.0 8.0 0.00 0.00 0.00 83 1015.2
20260510071428 53 270 4.0 6.0 0.00 0.00 0.00 84 1015.2
20260510070928 53 283 4.0 6.0 0.00 0.00 0.00 83 1015.2
20260510070424 53 256 5.0 7.0 0.00 0.00 0.00 83 1014.9
20260510065919 52 242 3.0 6.0 0.00 0.00 0.00 84 1015.2
20260510065416 53 266 3.0 3.0 0.00 0.00 0.00 83 1015.2
20260510064912 52 243 2.0 4.0 0.00 0.00 0.00 83 1015.1
20260510064410 52 239 4.0 4.0 0.00 0.00 0.00 84 1015.2
20260510063906 53 257 3.0 4.0 0.00 0.00 0.00 83 1015.3
20260510063403 53 272 3.0 4.0 0.00 0.00 0.00 82 1015.1
20260510062900 52 291 4.0 7.0 0.00 0.00 0.00 83 1015.3
20260510062355 53 262 4.0 4.0 0.00 0.00 0.00 82 1015.3
20260510061850 53 241 5.0 6.0 0.00 0.00 0.00 82 1015.1
20260510061348 53 239 3.0 6.0 0.00 0.00 0.00 81 1015.3
20260510060844 53 244 4.0 8.0 0.00 0.00 0.00 81 1015.4
20260510060341 53 250 3.0 4.0 0.00 0.00 0.00 81 1015.4
20260510055837 53 280 4.0 6.0 0.00 0.00 0.00 81 1015.5
20260510055336 53 271 1.0 3.0 0.00 0.00 0.00 81 1015.5
20260510054831 53 241 4.0 7.0 0.00 0.00 0.00 80 1015.5
20260510054326 54 258 4.0 6.0 0.00 0.00 0.00 79 1015.6
20260510053822 53 257 6.0 9.0 0.00 0.00 0.00 79 1015.5
20260510053317 53 247 3.0 7.0 0.00 0.00 0.00 79 1015.6
20260510052814 53 286 7.0 11.0 0.00 0.00 0.00 79 1015.6
20260510052310 53 260 4.0 8.0 0.00 0.00 0.00 78 1015.7
20260510051806 53 271 3.0 7.0 0.00 0.00 0.00 78 1015.7
20260510051302 53 247 3.0 6.0 0.00 0.00 0.00 79 1015.7
20260510050759 53 277 3.0 4.0 0.00 0.00 0.00 79 1015.5
20260510050256 52 233 3.0 4.0 0.00 0.00 0.00 80 1015.7
20260510045753 52 249 2.0 4.0 0.00 0.00 0.00 79 1015.5
20260510045249 52 251 1.0 2.0 0.00 0.00 0.00 80 1015.5
20260510044747 53 269 1.0 3.0 0.00 0.00 0.00 79 1015.3
20260510044239 52 267 2.0 3.0 0.00 0.00 0.00 79 1015.5
20260510043734 52 258 3.0 4.0 0.00 0.00 0.00 81 1015.4
20260510043231 51 265 1.0 2.0 0.00 0.00 0.00 82 1015.4
20260510042729 51 251 2.0 2.0 0.00 0.00 0.00 81 1015.4
20260510042224 51 245 1.0 2.0 0.00 0.00 0.00 81 1015.4
20260510041721 49 250 3.0 3.0 0.00 0.00 0.00 84 1015.5
20260510041219 49 257 0.0 0.0 0.00 0.00 0.00 84 1015.4
20260510040715 48 257 0.0 0.0 0.00 0.00 0.00 84 1015.3
20260510040212 48 256 0.0 0.0 0.00 0.00 0.00 85 1015.4
20260510035707 47 258 0.0 0.0 0.00 0.00 0.00 86 1015.4
20260510035204 47 258 0.0 0.0 0.00 0.00 0.00 86 1015.5
20260510034700 47 258 0.0 0.0 0.00 0.00 0.00 86 1015.3
20260510034157 47 254 0.0 0.0 0.00 0.00 0.00 86 1015.4
20260510033653 48 254 0.0 0.0 0.00 0.00 0.00 85 1015.4
20260510033151 47 254 0.0 0.0 0.00 0.00 0.00 86 1015.3
20260510032647 48 254 0.0 0.0 0.00 0.00 0.00 85 1015.2
20260510032143 48 254 0.0 0.0 0.00 0.00 0.00 85 1015.2
20260510031637 48 254 0.0 0.0 0.00 0.00 0.00 85 1015.1
20260510031135 48 254 1.0 2.0 0.00 0.00 0.00 83 1015.3
20260510030629 48 254 1.0 2.0 0.00 0.00 0.00 85 1015.3
20260510030127 48 266 1.0 3.0 0.00 0.00 0.00 83 1015.2
20260510025624 48 263 1.0 2.0 0.00 0.00 0.00 83 1015.1
20260510025121 48 263 1.0 2.0 0.00 0.00 0.00 84 1015.3
20260510024618 48 263 0.0 0.0 0.00 0.00 0.00 83 1015.2
20260510024114 49 263 0.0 0.0 0.00 0.00 0.00 82 1015.2
20260510023610 49 263 0.0 0.0 0.00 0.00 0.00 82 1015.3
20260510023108 49 263 0.0 0.0 0.00 0.00 0.00 82 1015.2
20260510022608 48 263 0.0 0.0 0.00 0.00 0.00 83 1014.9
20260510022102 48 263 0.0 0.0 0.00 0.00 0.00 84 1015.1
20260510021558 47 263 0.0 0.0 0.00 0.00 0.00 84 1014.8
20260510021056 47 263 0.0 0.0 0.00 0.00 0.00 84 1015.1
20260510020549 49 263 0.0 0.0 0.00 0.00 0.00 81 1014.9
20260510020045 50 263 0.0 0.0 0.00 0.00 0.00 80 1015.1
20260510015541 50 263 0.0 0.0 0.00 0.00 0.00 79 1014.8
20260510015038 50 263 0.0 0.0 0.00 0.00 0.00 79 1014.8
20260510014534 51 262 0.0 0.0 0.00 0.00 0.00 78 1014.5
20260510014031 51 262 0.0 0.0 0.00 0.00 0.00 76 1014.3
20260510013526 52 262 0.0 0.0 0.00 0.00 0.00 75 1014.4
20260510013022 53 262 0.0 1.0 0.00 0.00 0.00 73 1014.5
20260510012517 53 262 1.0 1.0 0.00 0.00 0.00 72 1014.4
20260510012013 54 263 2.0 2.0 0.00 0.00 0.00 71 1014.4
20260510011508 54 263 2.0 3.0 0.00 0.00 0.00 71 1014.2
20260510011003 54 270 3.0 3.0 0.00 0.00 0.00 70 1014.3
20260510010501 54 251 2.0 3.0 0.00 0.00 0.00 70 1014.1
20260510005957 54 249 2.0 3.0 0.00 0.00 0.00 70 1014.0
20260510005453 55 249 2.0 2.0 0.00 0.00 0.00 69 1014.0
20260510004951 55 250 2.0 3.0 0.00 0.00 0.00 69 1014.0
20260510004448 55 261 3.0 3.0 0.00 0.00 0.00 68 1013.6
20260510003946 56 284 5.0 6.0 0.00 0.00 0.00 67 1013.5
20260510003443 56 265 4.0 4.0 0.00 0.00 0.00 66 1013.5
20260510002942 57 257 4.0 4.0 0.00 0.00 0.00 66 1013.5
20260510002433 57 236 4.0 4.0 0.00 0.00 0.00 65 1013.4
20260510001930 57 278 5.0 6.0 0.00 0.00 0.00 65 1013.6
20260510001427 57 267 4.0 6.0 0.00 0.00 0.00 66 1013.4
20260510000925 57 249 2.0 3.0 0.00 0.00 0.00 65 1013.4
20260510000421 57 254 2.0 3.0 0.00 0.00 0.00 64 1013.3
20260509235917 58 265 3.0 3.0 0.00 0.00 0.00 64 1013.2
20260509235414 58 270 3.0 4.0 0.00 0.00 0.00 63 1013.2
20260509234910 58 274 5.0 7.0 0.00 0.00 0.00 62 1013.1
20260509234407 58 260 6.0 7.0 0.00 0.00 0.00 62 1013.2
20260509233906 59 254 2.0 3.0 0.00 0.00 0.00 61 1013.2
20260509233403 59 252 3.0 3.0 0.00 0.00 0.00 60 1013.3
20260509232858 59 272 5.0 6.0 0.00 0.00 0.00 61 1013.4
20260509232356 60 283 7.0 8.0 0.00 0.00 0.00 60 1013.2
20260509231852 60 304 5.0 7.0 0.00 0.00 0.00 60 1013.4
20260509231349 60 251 7.0 9.0 0.00 0.00 0.00 58 1013.0
20260509230847 60 318 6.0 9.0 0.00 0.00 0.00 58 1013.3
20260509230344 60 272 8.0 14.0 0.00 0.00 0.00 58 1013.3
20260509225839 60 283 5.0 10.0 0.00 0.00 0.00 58 1013.3
20260509225336 60 248 6.0 11.0 0.00 0.00 0.00 57 1013.3
20260509224832 61 261 8.0 9.0 0.00 0.00 0.00 57 1013.4
20260509224328 61 274 6.0 10.0 0.00 0.00 0.00 57 1013.6
20260509223825 61 243 5.0 7.0 0.00 0.00 0.00 57 1013.4
20260509223322 61 275 7.0 8.0 0.00 0.00 0.00 56 1013.5
20260509222819 61 255 8.0 9.0 0.00 0.00 0.00 56 1013.5
20260509222314 61 296 5.0 9.0 0.00 0.00 0.00 56 1013.5
20260509221810 62 252 3.0 7.0 0.00 0.00 0.00 56 1013.6
20260509221308 62 267 6.0 8.0 0.00 0.00 0.00 56 1013.6
20260509220808 62 270 5.0 7.0 0.00 0.00 0.00 55 1013.8
20260509220304 62 313 5.0 9.0 0.00 0.00 0.00 55 1013.5
20260509215759 62 281 6.0 7.0 0.00 0.00 0.00 54 1013.6
20260509215256 61 217 8.0 9.0 0.00 0.00 0.00 55 1013.8
20260509214753 63 293 4.0 7.0 0.00 0.00 0.00 53 1013.6
20260509214250 62 315 4.0 7.0 0.00 0.00 0.00 53 1013.6
20260509213747 61 276 5.0 8.0 0.00 0.00 0.00 54 1013.4
20260509213243 61 292 3.0 6.0 0.00 0.00 0.00 55 1013.4
20260509212741 61 254 4.0 6.0 0.00 0.00 0.00 57 1013.1
20260509212238 61 255 6.0 7.0 0.00 0.00 0.00 56 1013.4
20260509211733 63 273 6.0 11.0 0.00 0.00 0.00 54 1013.4
20260509211230 63 260 6.0 8.0 0.00 0.00 0.00 54 1013.3
20260509210727 61 253 11.0 15.0 0.00 0.00 0.00 54 1013.2
20260509210225 62 245 3.0 4.0 0.00 0.00 0.00 55 1013.3
20260509205724 61 274 6.0 8.0 0.00 0.00 0.00 55 1013.2
20260509205224 61 243 5.0 7.0 0.00 0.00 0.00 57 1013.3
20260509204720 61 262 7.0 8.0 0.00 0.00 0.00 57 1013.3
20260509204216 61 289 4.0 6.0 0.00 0.00 0.00 58 1013.2
20260509203712 61 247 2.0 2.0 0.00 0.00 0.00 59 1013.2
20260509203211 61 257 2.0 3.0 0.00 0.00 0.00 60 1013.4
20260509202706 61 281 4.0 4.0 0.00 0.00 0.00 58 1013.3
20260509202201 61 244 2.0 4.0 0.00 0.00 0.00 58 1013.1
20260509201657 61 248 2.0 3.0 0.00 0.00 0.00 59 1013.4
20260509201154 60 260 2.0 4.0 0.00 0.00 0.00 59 1013.5
20260509200650 60 292 2.0 3.0 0.00 0.00 0.00 58 1013.5
20260509200145 60 299 0.0 2.0 0.00 0.00 0.00 59 1013.2
20260509195642 60 258 3.0 4.0 0.00 0.00 0.00 57 1013.3
20260509195137 60 251 2.0 4.0 0.00 0.00 0.00 58 1013.2